GBB123 FAOR-FACT

Flight info

Callsign GBB123
Flight time N/A
Altitude 38000
Route RAGUL3B RAGUL DCT UTEBA DCT APMIN DCT EVESI DCT EGNOM DCT NOKOX DCT ERDAS ERDAS1B
Aircraft A20N/M-SDE2E3FGHIRWXY/LB1

Departure

Time 2026-05-06 11:16
Airport O.R. Tambo International Airport (FAOR)

Arrival

Time N/A
Airport Cape Town International Airport (FACT)
Time Latitude Longitude Altitude Speed Heading
2026-05-06 10:43 -26.13682 28.23107 5546 ft 0 kts
2026-05-06 11:07 -26.13685 28.23107 5551 ft 1 kts
2026-05-06 11:08 -26.13704 28.23104 5548 ft 1 kts 12°
2026-05-06 11:08 -26.13723 28.23098 5548 ft 2 kts 26°
2026-05-06 11:08 -26.13739 28.23087 5549 ft 3 kts 63°
2026-05-06 11:08 -26.13742 28.23075 5548 ft 0 kts 96°
2026-05-06 11:11 -26.13743 28.23083 5550 ft 2 kts 96°
2026-05-06 11:11 -26.13745 28.23110 5546 ft 5 kts 96°
2026-05-06 11:11 -26.13750 28.23156 5546 ft 7 kts 96°
2026-05-06 11:12 -26.13756 28.23221 5551 ft 10 kts 96°
2026-05-06 11:12 -26.13772 28.23299 5550 ft 11 kts 125°
2026-05-06 11:12 -26.13839 28.23321 5550 ft 10 kts 195°
2026-05-06 11:12 -26.13914 28.23297 5549 ft 12 kts 196°
2026-05-06 11:13 -26.14001 28.23272 5551 ft 14 kts 196°
2026-05-06 11:13 -26.14104 28.23239 5551 ft 16 kts 196°
2026-05-06 11:13 -26.14206 28.23205 5553 ft 14 kts 197°
2026-05-06 11:13 -26.14278 28.23207 5558 ft 7 kts 166°
2026-05-06 11:14 -26.14312 28.23216 5561 ft 3 kts 167°
2026-05-06 11:14 -26.14333 28.23221 5563 ft 8 kts 167°
2026-05-06 11:14 -26.14466 28.23256 5564 ft 31 kts 167°
2026-05-06 11:14 -26.14575 28.23290 5564 ft 10 kts 149°
2026-05-06 11:15 -26.14603 28.23364 5563 ft 12 kts 110°
2026-05-06 11:15 -26.14586 28.23453 5561 ft 12 kts 29°
2026-05-06 11:15 -26.14534 28.23467 5561 ft 1 kts 15°
2026-05-06 11:15 -26.14359 28.23513 5561 ft 59 kts 11°
2026-05-06 11:16 -26.13778 28.23687 5558 ft 113 kts 15°
2026-05-06 11:16 -26.12866 28.23983 5543 ft 154 kts 17°
2026-05-06 11:16 -26.11739 28.24347 5586 ft 179 kts 14°
2026-05-06 11:16 -26.10617 28.24808 6278 ft 171 kts 14°
2026-05-06 11:17 -26.09395 28.25287 6672 ft 198 kts 13°
2026-05-06 11:17 -26.08028 28.25792 7201 ft 210 kts 13°
2026-05-06 11:17 -26.06655 28.26281 7984 ft 213 kts
2026-05-06 11:17 -26.05208 28.26243 8804 ft 208 kts 329°
2026-05-06 11:18 -26.04134 28.25247 9679 ft 204 kts 300°
2026-05-06 11:18 -26.03644 28.23755 10343 ft 215 kts 276°
2026-05-06 11:18 -26.03670 28.21963 10466 ft 255 kts 266°
2026-05-06 11:18 -26.03909 28.19834 10332 ft 299 kts 263°
2026-05-06 11:19 -26.04240 28.17488 10989 ft 310 kts 263°
2026-05-06 11:19 -26.04589 28.15136 11997 ft 310 kts 264°
2026-05-06 11:19 -26.04948 28.12764 12992 ft 312 kts 264°
2026-05-06 11:19 -26.05305 28.10411 13912 ft 314 kts 265°
2026-05-06 11:20 -26.05674 28.07985 14591 ft 318 kts 266°
2026-05-06 11:20 -26.06041 28.05585 14890 ft 318 kts 266°
2026-05-06 11:20 -26.06413 28.03157 15020 ft 318 kts 266°
2026-05-06 11:20 -26.06787 28.00711 15044 ft 320 kts 266°
2026-05-06 11:21 -26.07255 27.98284 15047 ft 325 kts 257°
2026-05-06 11:21 -26.08316 27.96017 15059 ft 338 kts 243°
2026-05-06 11:21 -26.09874 27.93997 15389 ft 353 kts 232°
2026-05-06 11:21 -26.11751 27.92218 16167 ft 359 kts 230°
2026-05-06 11:22 -26.13659 27.90377 16895 ft 363 kts 232°
2026-05-06 11:22 -26.15535 27.88489 17615 ft 365 kts 234°
2026-05-06 11:22 -26.17404 27.86562 18265 ft 371 kts 235°
2026-05-06 11:22 -26.19280 27.84605 18872 ft 374 kts 235°
2026-05-06 11:23 -26.21190 27.82610 19539 ft 376 kts 235°
2026-05-06 11:23 -26.23101 27.80612 20132 ft 379 kts 235°
2026-05-06 11:23 -26.25034 27.78591 20735 ft 383 kts 235°
2026-05-06 11:23 -26.26653 27.76899 21243 ft 385 kts 236°
2026-05-06 11:24 -26.28618 27.74844 21832 ft 389 kts 236°
2026-05-06 11:24 -26.30603 27.72770 22423 ft 392 kts 236°
2026-05-06 11:24 -26.32594 27.70690 22991 ft 396 kts 236°
2026-05-06 11:24 -26.34547 27.68652 23537 ft 400 kts 236°
2026-05-06 11:25 -26.36587 27.66524 24037 ft 403 kts 236°
2026-05-06 11:25 -26.38640 27.64384 24571 ft 404 kts 236°
2026-05-06 11:25 -26.40700 27.62238 25048 ft 407 kts 236°
2026-05-06 11:25 -26.42775 27.60073 25547 ft 409 kts 236°
2026-05-06 11:26 -26.44854 27.57904 26032 ft 411 kts 236°
2026-05-06 11:26 -26.46939 27.55709 26512 ft 412 kts 236°
2026-05-06 11:26 -26.49011 27.53493 26995 ft 414 kts 236°
2026-05-06 11:26 -26.51060 27.51291 27457 ft 416 kts 236°
2026-05-06 11:27 -26.53141 27.49056 27911 ft 418 kts 236°
2026-05-06 11:27 -26.55238 27.46807 28374 ft 420 kts 236°
2026-05-06 11:27 -26.57351 27.44542 28820 ft 422 kts 236°
2026-05-06 11:27 -26.59480 27.42258 29246 ft 424 kts 236°
2026-05-06 11:28 -26.61615 27.39971 29652 ft 426 kts 236°
2026-05-06 11:28 -26.63753 27.37680 30058 ft 428 kts 235°
2026-05-06 11:28 -26.65902 27.35376 30389 ft 430 kts 235°
2026-05-06 11:28 -26.68036 27.33086 30677 ft 434 kts 235°
2026-05-06 11:29 -26.69591 27.31418 30889 ft 436 kts 235°
2026-05-06 11:29 -26.71777 27.29071 31189 ft 439 kts 235°
2026-05-06 11:29 -26.73968 27.26721 31571 ft 439 kts 235°
2026-05-06 11:29 -26.76186 27.24340 31972 ft 439 kts 235°
2026-05-06 11:30 -26.78383 27.21977 32372 ft 439 kts 234°
2026-05-06 11:30 -26.80584 27.19608 32734 ft 440 kts 234°
2026-05-06 11:30 -26.82481 27.17566 33059 ft 440 kts 234°
2026-05-06 11:30 -26.84661 27.15217 33398 ft 440 kts 234°
2026-05-06 11:31 -26.86862 27.12846 33745 ft 440 kts 234°
2026-05-06 11:31 -26.88999 27.10543 34060 ft 440 kts 234°
2026-05-06 11:31 -26.91199 27.08170 34356 ft 439 kts 234°
2026-05-06 11:31 -26.93396 27.05799 34649 ft 438 kts 234°
2026-05-06 11:32 -26.95586 27.03434 34944 ft 437 kts 234°
2026-05-06 11:32 -26.97734 27.01091 35210 ft 435 kts 234°
2026-05-06 11:32 -26.99916 26.98682 35487 ft 434 kts 234°
2026-05-06 11:32 -27.02066 26.96304 35764 ft 434 kts 234°
2026-05-06 11:33 -27.04217 26.93927 36030 ft 433 kts 234°
2026-05-06 11:33 -27.06359 26.91564 36296 ft 432 kts 234°
2026-05-06 11:33 -27.08497 26.89204 36556 ft 431 kts 234°
2026-05-06 11:33 -27.10592 26.86891 36812 ft 430 kts 234°
2026-05-06 11:34 -27.12735 26.84524 37067 ft 429 kts 234°
2026-05-06 11:34 -27.14845 26.82192 37321 ft 428 kts 233°
2026-05-06 11:34 -27.16980 26.79831 37574 ft 428 kts 233°
2026-05-06 11:34 -27.19104 26.77481 37821 ft 427 kts 233°
2026-05-06 11:35 -27.21213 26.75147 38004 ft 426 kts 233°
2026-05-06 11:35 -27.25381 26.70531 38030 ft 424 kts 233°
2026-05-06 11:36 -27.29574 26.65880 38036 ft 424 kts 233°
2026-05-06 11:36 -27.33458 26.61567 38028 ft 424 kts 233°
2026-05-06 11:37 -27.37705 26.56845 38032 ft 424 kts 233°
2026-05-06 11:37 -27.41893 26.52186 38027 ft 424 kts 233°
2026-05-06 11:38 -27.46041 26.47563 38024 ft 424 kts 233°
2026-05-06 11:38 -27.50250 26.42871 38031 ft 424 kts 233°
2026-05-06 11:39 -27.54441 26.38193 38022 ft 424 kts 233°
2026-05-06 11:39 -27.58634 26.33509 38027 ft 424 kts 233°
2026-05-06 11:40 -27.62796 26.28854 38008 ft 424 kts 233°
2026-05-06 11:40 -27.66976 26.24173 38010 ft 424 kts 233°
2026-05-06 11:41 -27.70493 26.20227 38004 ft 424 kts 233°
2026-05-06 11:41 -27.74677 26.15531 37996 ft 424 kts 232°
2026-05-06 11:42 -27.78419 26.11325 37994 ft 424 kts 232°
2026-05-06 11:42 -27.82576 26.06649 37990 ft 424 kts 232°
2026-05-06 11:43 -27.86757 26.01940 37991 ft 424 kts 232°
2026-05-06 11:43 -27.90938 25.97225 37997 ft 424 kts 232°
2026-05-06 11:44 -27.97181 25.90176 38000 ft 425 kts 232°
2026-05-06 11:44 -28.01356 25.85456 38001 ft 425 kts 232°
2026-05-06 11:45 -28.05530 25.80727 38005 ft 424 kts 232°
2026-05-06 11:45 -28.09699 25.76000 38011 ft 424 kts 232°
2026-05-06 11:46 -28.13839 25.71301 38014 ft 424 kts 232°
2026-05-06 11:46 -28.17986 25.66591 37998 ft 421 kts 232°
2026-05-06 11:47 -28.22123 25.61883 38000 ft 421 kts 232°
2026-05-06 11:47 -28.26254 25.57175 38000 ft 421 kts 232°
2026-05-06 11:48 -28.30384 25.52464 38005 ft 420 kts 232°
2026-05-06 11:48 -28.33293 25.49143 38000 ft 420 kts 232°
2026-05-06 11:49 -28.37412 25.44436 37999 ft 420 kts 232°
2026-05-06 11:49 -28.41527 25.39727 38004 ft 420 kts 232°
2026-05-06 11:50 -28.45645 25.35010 38014 ft 420 kts 232°
2026-05-06 11:50 -28.49727 25.30328 37989 ft 420 kts 232°
2026-05-06 11:51 -28.53834 25.25611 37994 ft 421 kts 232°
2026-05-06 11:51 -28.57956 25.20873 37986 ft 421 kts 232°
2026-05-06 11:52 -28.62044 25.16167 37992 ft 420 kts 232°
2026-05-06 11:52 -28.66138 25.11444 37982 ft 420 kts 231°
2026-05-06 11:53 -28.69700 25.07333 37979 ft 420 kts 231°
2026-05-06 11:53 -28.73757 25.02651 37974 ft 420 kts 231°
2026-05-06 11:54 -28.77828 24.97946 37971 ft 420 kts 231°
2026-05-06 11:54 -28.81929 24.93198 37970 ft 421 kts 231°
2026-05-06 11:55 -28.86044 24.88430 37966 ft 421 kts 231°
2026-05-06 11:55 -28.90145 24.83669 37967 ft 421 kts 231°
2026-05-06 11:56 -28.94232 24.78920 37965 ft 421 kts 231°
2026-05-06 11:56 -28.98326 24.74158 37951 ft 421 kts 231°
2026-05-06 11:57 -29.02439 24.69368 37956 ft 422 kts 231°
2026-05-06 11:57 -29.06549 24.64576 37957 ft 423 kts 231°
2026-05-06 11:58 -29.10650 24.59788 37993 ft 424 kts 230°
2026-05-06 11:58 -29.14782 24.54959 37993 ft 425 kts 230°
2026-05-06 11:59 -29.18902 24.50136 37977 ft 424 kts 230°
2026-05-06 11:59 -29.23020 24.45313 37972 ft 422 kts 230°
2026-05-06 12:00 -29.27087 24.40542 37971 ft 422 kts 230°
2026-05-06 12:00 -29.31184 24.35729 37968 ft 421 kts 230°
2026-05-06 12:01 -29.34982 24.31263 37968 ft 421 kts 230°
2026-05-06 12:01 -29.39065 24.26455 37970 ft 421 kts 230°
2026-05-06 12:02 -29.43153 24.21636 37961 ft 421 kts 230°
2026-05-06 12:02 -29.47204 24.16855 37971 ft 421 kts 230°
2026-05-06 12:03 -29.51287 24.12030 37970 ft 421 kts 230°
2026-05-06 12:03 -29.55358 24.07213 37962 ft 421 kts 229°
2026-05-06 12:04 -29.59420 24.02401 37958 ft 421 kts 229°
2026-05-06 12:04 -29.63524 23.97533 37955 ft 421 kts 229°
2026-05-06 12:05 -29.67574 23.92723 37946 ft 421 kts 229°
2026-05-06 12:05 -29.70591 23.89137 37939 ft 422 kts 229°
2026-05-06 12:06 -29.74666 23.84287 37934 ft 422 kts 229°
2026-05-06 12:06 -29.78755 23.79415 37931 ft 422 kts 229°
2026-05-06 12:07 -29.82804 23.74582 37928 ft 423 kts 229°
2026-05-06 12:07 -29.86887 23.69703 37921 ft 423 kts 229°
2026-05-06 12:08 -29.90977 23.64811 37927 ft 424 kts 228°
2026-05-06 12:08 -29.95048 23.59936 37927 ft 425 kts 228°
2026-05-06 12:09 -29.99150 23.55017 37925 ft 425 kts 228°
2026-05-06 12:09 -30.03238 23.50110 37915 ft 423 kts 228°
2026-05-06 12:10 -30.07224 23.45317 37911 ft 423 kts 228°
2026-05-06 12:10 -30.11299 23.40412 37909 ft 422 kts 228°
2026-05-06 12:11 -30.15156 23.35764 37906 ft 422 kts 228°
2026-05-06 12:11 -30.18533 23.31690 37897 ft 421 kts 228°
2026-05-06 12:12 -30.21938 23.27576 37895 ft 420 kts 228°
2026-05-06 12:12 -30.23962 23.25128 37891 ft 420 kts 228°
2026-05-06 12:13 -30.27123 23.21305 37886 ft 419 kts 227°
2026-05-06 12:13 -30.31129 23.16453 37878 ft 418 kts 227°
2026-05-06 12:14 -30.34908 23.11870 37874 ft 418 kts 227°
2026-05-06 12:14 -30.38920 23.06999 37868 ft 418 kts 227°
2026-05-06 12:15 -30.42930 23.02124 37871 ft 419 kts 227°
2026-05-06 12:15 -30.46927 22.97258 37865 ft 419 kts 227°
2026-05-06 12:16 -30.50891 22.92427 37860 ft 419 kts 227°
2026-05-06 12:16 -30.54905 22.87529 37862 ft 419 kts 227°
2026-05-06 12:17 -30.58907 22.82639 37858 ft 419 kts 227°
2026-05-06 12:17 -30.62924 22.77724 37863 ft 420 kts 227°
2026-05-06 12:18 -30.66929 22.72817 37867 ft 421 kts 227°
2026-05-06 12:18 -30.70947 22.67887 37868 ft 421 kts 227°
2026-05-06 12:19 -30.74980 22.62934 37874 ft 421 kts 227°
2026-05-06 12:19 -30.78988 22.58005 37879 ft 423 kts 227°
2026-05-06 12:20 -30.83056 22.52996 37877 ft 421 kts 226°
2026-05-06 12:20 -30.87036 22.48092 37877 ft 421 kts 226°
2026-05-06 12:21 -30.91059 22.43128 37884 ft 421 kts 226°
2026-05-06 12:21 -30.94909 22.38338 37888 ft 421 kts 226°
2026-05-06 12:22 -30.98905 22.33366 37892 ft 421 kts 226°
2026-05-06 12:22 -31.02884 22.28417 37896 ft 421 kts 226°
2026-05-06 12:23 -31.06895 22.23422 37892 ft 420 kts 226°
2026-05-06 12:23 -31.10877 22.18454 37895 ft 420 kts 226°
2026-05-06 12:24 -31.14877 22.13458 37890 ft 420 kts 226°
2026-05-06 12:24 -31.18834 22.08508 37895 ft 420 kts 226°
2026-05-06 12:25 -31.22813 22.03525 37897 ft 420 kts 226°
2026-05-06 12:25 -31.26812 21.98510 37906 ft 422 kts 226°
2026-05-06 12:26 -31.30810 21.93490 37908 ft 422 kts 226°
2026-05-06 12:26 -31.33538 21.90059 37914 ft 422 kts 226°
2026-05-06 12:27 -31.36607 21.86196 37914 ft 422 kts 226°
2026-05-06 12:27 -31.40608 21.81155 37917 ft 423 kts 226°
2026-05-06 12:28 -31.44620 21.76093 37924 ft 424 kts 226°
2026-05-06 12:28 -31.48598 21.71067 37931 ft 424 kts 226°
2026-05-06 12:29 -31.52612 21.65989 37943 ft 426 kts 226°
2026-05-06 12:29 -31.56642 21.60884 37933 ft 425 kts 226°
2026-05-06 12:30 -31.60649 21.55803 37938 ft 424 kts 226°
2026-05-06 12:30 -31.64626 21.50751 37940 ft 424 kts 226°
2026-05-06 12:31 -31.68421 21.45924 37943 ft 425 kts 226°
2026-05-06 12:31 -31.72478 21.40757 37947 ft 424 kts 226°
2026-05-06 12:32 -31.76378 21.35783 37951 ft 424 kts 226°
2026-05-06 12:32 -31.80320 21.30748 37954 ft 424 kts 226°
2026-05-06 12:33 -31.84275 21.25690 37963 ft 424 kts 226°
2026-05-06 12:33 -31.88298 21.20537 37962 ft 424 kts 226°
2026-05-06 12:34 -31.92288 21.15419 37965 ft 424 kts 226°